Terug naar catalogus

SL-12 R/B(2)

ActiefGEO
NORAD 23429·ROCKET BODY·🇷🇺 Russia

Gelanceerd Dec 16, 1994 vanaf Baikonur Cosmodrome

Loading…

TLE

VersSource: Space-Track

Epoch: Aug 29, 2026, 19:26 UTC

1 23429U 94082D   26241.81012303  .00000114  00000-0  00000+0 0  9991
2 23429  14.5654 353.4866 0027336 144.0471 161.3702  1.00795538116639

Volg SL-12 R/B(2) in realtime met AllMySat

Download on the App Store